GW3154 Weather Reports


time (UTC)temp
C
wind
direction
speed
KPH
gust
KPH
rain 1hr
cm
rain 24hr
cm
rain mn
cm
humidity
%
barometer
mb
20260505171544 15 327 0.0 0.0 0.00 0.00 0.00 80 1017.8
20260505170041 15 218 0.0 0.0 0.00 0.00 0.00 80 1017.9
20260505164540 13 90 0.0 0.0 0.00 0.00 0.00 83 1017.9
20260505163039 13 73 0.0 0.0 0.00 0.00 0.00 85 1017.9
20260505161537 13 47 0.0 0.0 0.00 0.00 0.00 84 1017.6
20260505153031 13 186 0.0 0.0 0.00 0.00 0.00 86 1017.7
20260505151530 13 216 0.0 0.0 0.00 0.00 0.00 88 1017.7
20260505124457 12 267 0.0 0.0 0.00 0.00 0.00 91 1016.6
20260505122958 12 286 0.0 0.0 0.00 0.00 0.00 91 1016.5
20260505121454 12 204 0.0 0.0 0.00 0.00 0.00 91 1016.5
20260505115952 12 203 0.0 0.0 0.00 0.00 0.00 91 1016.3
20260505114448 12 204 0.0 0.0 0.00 0.00 0.00 91 1016.4
20260505112943 12 239 1.6 1.6 0.00 0.00 0.00 91 1016.3
20260505111443 12 187 0.0 0.0 0.00 0.00 0.00 90 1016.3
20260505101432 12 180 1.6 1.6 0.00 0.00 0.00 91 1016.0
20260505095932 12 198 0.0 0.0 0.00 0.00 0.00 92 1016.0
20260505094429 12 178 1.6 1.6 0.00 0.00 0.00 92 1015.9
20260505092925 12 170 1.6 3.2 0.00 0.00 0.00 91 1015.8
20260505091423 12 196 0.0 1.6 0.00 0.00 0.00 92 1015.7
20260505085922 12 186 0.0 1.6 0.00 0.00 0.00 91 1015.6
20260505084421 12 187 0.0 1.6 0.00 0.00 0.00 92 1015.8
20260505082918 11 182 1.6 1.6 0.00 0.00 0.00 92 1015.6
20260505081414 11 171 1.6 1.6 0.00 0.00 0.00 92 1015.5
20260505075914 11 221 0.0 0.0 0.00 0.00 0.00 93 1015.4
20260505074411 11 225 0.0 0.0 0.00 0.00 0.00 93 1015.6
20260505072909 11 218 0.0 0.0 0.00 0.00 0.00 94 1015.3
20260505071404 11 178 1.6 3.2 0.00 0.00 0.00 94 1015.4
20260505065859 11 178 1.6 1.6 0.00 0.00 0.00 93 1015.2
20260505064356 11 198 0.0 1.6 0.00 0.00 0.00 92 1015.1
20260505062852 11 237 0.0 0.0 0.00 0.00 0.00 90 1014.8
20260505061350 12 180 0.0 0.0 0.00 0.00 0.00 88 1014.8
20260505055846 12 175 3.2 3.2 0.00 0.00 0.00 87 1015.0
20260505054342 12 182 0.0 1.6 0.00 0.00 0.00 87 1014.9
20260505052840 13 171 1.6 1.6 0.00 0.00 0.00 86 1014.9
20260505051337 13 177 3.2 4.8 0.00 0.00 0.00 85 1014.8
20260505041330 15 187 0.0 0.0 0.00 0.00 0.00 83 1014.0
20260505035827 15 245 1.6 1.6 0.00 0.00 0.00 82 1013.8
20260505034328 15 256 1.6 1.6 0.00 0.00 0.00 81 1013.6
20260505032826 16 219 1.6 1.6 0.00 0.00 0.00 80 1013.2
20260505031321 16 176 0.0 1.6 0.00 0.00 0.00 78 1013.1
20260505025821 17 212 1.6 1.6 0.00 0.00 0.00 75 1012.7
20260505024321 18 209 0.0 0.0 0.00 0.00 0.00 72 1012.5
20260505022818 19 231 1.6 1.6 0.00 0.00 0.00 70 1012.3
20260505021314 20 214 1.6 3.2 0.00 0.00 0.00 69 1012.3
20260505015809 20 238 1.6 1.6 0.00 0.00 0.00 67 1012.3
20260505014307 21 239 1.6 3.2 0.00 0.00 0.00 67 1012.4
20260505012804 21 163 0.0 1.6 0.00 0.00 0.00 66 1012.2
20260505011300 23 269 0.0 0.0 0.00 0.00 0.00 62 1012.1
20260505005800 23 184 0.0 0.0 0.00 0.00 0.00 61 1012.2
20260505004256 23 173 0.0 0.0 0.00 0.00 0.00 63 1012.4
20260505002753 23 241 3.2 4.8 0.00 0.00 0.00 63 1012.4
20260505001251 23 177 9.7 14.5 0.00 0.00 0.00 61 1012.6
20260504235748 23 196 1.6 1.6 0.00 0.00 0.00 65 1012.6
20260504234245 22 179 4.8 4.8 0.00 0.00 0.00 64 1012.9
20260504232746 22 173 1.6 1.6 0.00 0.00 0.00 64 1013.0
20260504231242 22 160 4.8 8.0 0.00 0.00 0.00 66 1013.0
20260504225741 21 234 1.6 1.6 0.00 0.00 0.00 68 1013.4
20260504224237 21 187 1.6 1.6 0.00 0.00 0.00 67 1013.3
20260504222732 20 195 3.2 4.8 0.00 0.00 0.00 69 1013.6
20260504221229 21 210 0.0 1.6 0.00 0.00 0.00 68 1013.7
20260504215725 20 191 0.0 1.6 0.00 0.00 0.00 69 1014.0
20260504214221 20 222 3.2 4.8 0.00 0.00 0.00 69 1014.1
20260504212717 20 233 3.2 4.8 0.00 0.00 0.00 70 1014.3
20260504211212 19 138 0.0 0.0 0.00 0.00 0.00 71 1014.5
20260504205710 18 190 0.0 1.6 0.00 0.00 0.00 73 1014.5
20260504204210 18 180 3.2 3.2 0.00 0.00 0.00 70 1014.8
20260504202705 18 200 8.0 11.3 0.00 0.00 0.00 72 1014.9
20260504201203 18 202 3.2 4.8 0.00 0.00 0.00 74 1014.9
20260504195659 18 204 4.8 4.8 0.00 0.00 0.00 74 1015.0
20260504194159 17 247 1.6 3.2 0.00 0.00 0.00 77 1015.1
20260504192658 17 171 1.6 3.2 0.00 0.00 0.00 75 1015.2
20260504191155 16 171 8.0 9.7 0.00 0.00 0.00 77 1015.5
20260504185651 15 177 4.8 8.0 0.00 0.00 0.00 81 1015.5
20260504184150 15 210 3.2 4.8 0.00 0.00 0.00 82 1015.4
20260504182648 15 203 6.4 8.0 0.00 0.00 0.00 82 1015.5
20260504181146 15 195 6.4 9.7 0.00 0.00 0.00 83 1015.4
20260504175646 14 192 3.2 4.8 0.00 0.00 0.00 83 1015.3
20260504174143 14 190 4.8 8.0 0.00 0.00 0.00 84 1015.5
20260504172640 14 162 9.7 16.1 0.00 0.00 0.00 84 1015.3